"Pseudo-MPEC" for P22p4vP

Created 2026 Aug 17 22:35:22 UT using Find_Orb

Click here for an explanation of pseudo-MPECs

 
 Astrometry: 
     P22p4vP*0C2026 08 09.28576518 08 27.225+44 44 26.11   ~899K 21.36wXNEOCPF52
     P22p4vP 0C2026 08 09.29844818 08 27.705+44 42 44.33   ~899K 21.23wXNEOCPF52
     P22p4vP 0C2026 08 09.31113418 08 28.195+44 41 01.91   ~899K 21.59wXNEOCPF52
     P22p4vP 0C2026 08 09.39468118 08 31.488+44 29 40.16   ~89H5 20.77GVNEOCPF52
     P22p4vP 0C2026 08 09.39548818 08 31.511+44 29 33.20   ~89H5 21.12GVNEOCPF52
     P22p4vP 0C2026 08 09.91020018 09 07.745+43 17 24.54   ~89MZ 21.3 GWNEOCPJ95
     P22p4vP 0C2026 08 09.91739818 09 08.110+43 16 23.02   ~89MZ 21.0 GWNEOCPJ95
     P22p4vP KB2026 08 10.81944 18 10 13.08 +41 00 58.2    ~8AKK       XNEOCP106
     P22p4vP KB2026 08 10.82425 18 10 13.32 +41 00 12.6    ~8AKK       XNEOCP106
     P22p4vP KB2026 08 10.82906 18 10 13.58 +40 59 27.9    ~8AKK       XNEOCP106
     P22p4vP KB2026 08 10.83371 18 10 13.80 +40 58 43.8    ~8AKK       XNEOCP106
     P22p4vP KB2026 08 10.89119518 10 16.91 +40 49 37.5    ~8AM5 20.4 GVNEOCPL01
     P22p4vP KB2026 08 10.89720918 10 17.20 +40 48 39.9    ~8AM5 19.7 GVNEOCPL01
     P22p4vP KB2026 08 10.90322318 10 17.53 +40 47 42.5    ~8AM5 19.6 GVNEOCPL01
     P22p4vP 1C2026 08 10.91937018 10 18.696+40 45 02.10   ~8AMo 20.3 GXNEOCP033
     P22p4vP 1C2026 08 10.92101018 10 18.757+40 44 46.80   ~8AMo 20.8 GXNEOCP033
     P22p4vP 1C2026 08 10.92265018 10 18.876+40 44 31.10   ~8AMo 20.5 GXNEOCP033
     P22p4vP 1C2026 08 10.92428018 10 18.977+40 44 15.00   ~8AMo 20.2 GXNEOCP033
     P22p4vP 1C2026 08 11.84076018 11 30.358+38 11 14.20   ~8BKZ 19.7 GXNEOCP033
     P22p4vP 1C2026 08 11.84170018 11 30.397+38 11 04.30   ~8BKZ 20.1 GXNEOCP033
     P22p4vP 1C2026 08 11.84265018 11 30.466+38 10 54.20   ~8BKZ 19.9 GXNEOCP033
     P22p4vP 1C2026 08 11.84359018 11 30.509+38 10 44.40   ~8BKZ 20.0 GXNEOCP033
     P22p4vP KB2026 08 11.88784018 11 33.75 +38 03 04.5    ~8BLo 20.2 GXNEOCPI93
     P22p4vP KB2026 08 11.89167918 11 33.98 +38 02 24.0    ~8BLo 21.2 GXNEOCPI93
     P22p4vP KB2026 08 11.89540418 11 34.17 +38 01 44.2    ~8BLo 20.6 GXNEOCPI93
     P22p4vP 1C2026 08 12.85704018 12 53.028+35 03 24.50   ~8CL5 20.6 GXNEOCP033
     P22p4vP 1C2026 08 12.85770018 12 53.078+35 03 16.80   ~8CL5 20.5 GXNEOCP033
     P22p4vP 1C2026 08 12.85836018 12 53.129+35 03 09.10   ~8CL5 20.4 GXNEOCP033
     P22p4vP 1C2026 08 12.85902018 12 53.158+35 03 01.50   ~8CL5 20.5 GXNEOCP033
     P22p4vP KB2026 08 13.80785 18 14 15.56 +31 48 52.9    ~8DKZ 19.4 GXNEOCPM75
     P22p4vP KB2026 08 13.82024 18 14 16.43 +31 46 12.7    ~8DKZ       XNEOCPM75
     P22p4vP KB2026 08 13.83244 18 14 17.31 +31 43 34.8    ~8DKZ 20.1 GXNEOCPM75
     P22p4vP 1C2026 08 13.86818018 14 21.426+31 35 48.40   ~8DLK 20.3 GXNEOCP033
     P22p4vP 1C2026 08 13.86878018 14 21.476+31 35 40.50   ~8DLK 20.4 GXNEOCP033
     P22p4vP 1C2026 08 13.86998018 14 21.588+31 35 24.60   ~8DLK 20.5 GXNEOCP033
     P22p4vP 0C2026 08 13.90839118 14 25.018+31 27 05.58   ~8DMo       WNEOCPJ95
     P22p4vP 0C2026 08 13.91693118 14 25.646+31 25 14.23   ~8DMo 20.4 GWNEOCPJ95
     P22p4vP 0C2026 08 13.93049718 14 26.609+31 22 16.46   ~8DMo 20.7 GWNEOCPJ95
     P22p4vP KC2026 08 14.14823318 14 46.88 +30 34 31.2    ~8E45x20.7 GVNEOCPH21
     P22p4vP KC2026 08 14.15028718 14 47.04 +30 34 03.6    ~8E45x20.8 GVNEOCPH21
     P22p4vP KC2026 08 14.15509618 14 47.34 +30 32 59.5    ~8E45x20.8 GVNEOCPH21
     P22p4vP KB2026 08 14.82550 18 15 51.84 +27 58 46.2    ~8EKZ       ZNEOCP106
     P22p4vP KB2026 08 14.82979 18 15 52.15 +27 57 44.8    ~8EKZ       ZNEOCP106
     P22p4vP KB2026 08 14.83425 18 15 52.51 +27 56 41.3    ~8EKZ       ZNEOCP106
     P22p4vP KB2026 08 14.83732 18 15 52.17 +27 55 55.6    ~8EKo 20.0 GXNEOCPL04
     P22p4vP KB2026 08 14.83856 18 15 52.81 +27 55 39.3    ~8EKZ       ZNEOCP106
     P22p4vP KB2026 08 14.85080 18 15 53.18 +27 52 42.9    ~8EKo 20.1 GXNEOCPL04
     P22p4vP 0B2026 08 14.86890218 15 54.626+27 49 35.65   ~8ENo 20.5 GWNEOCPM21
     P22p4vP 0B2026 08 14.88988118 15 56.131+27 44 33.98   ~8ENo       WNEOCPM21
     P22p4vP 1C2026 08 14.94297018 16 01.225+27 30 31.00   ~8EN5 19.8 GXNEOCP033
     P22p4vP 1C2026 08 14.94351018 16 01.276+27 30 23.20   ~8EN5 19.7 GXNEOCP033
     P22p4vP 1C2026 08 14.94405018 16 01.315+27 30 15.50   ~8EN5 19.9 GXNEOCP033
     P22p4vP 1C2026 08 14.94459018 16 01.355+27 30 07.50   ~8EN5 20.0 GXNEOCP033
     P22p4vP KB2026 08 14.99636818 16 05.41 +27 17 40.0    ~8F0Z 19.1 GVNEOCP104
     P22p4vP KB2026 08 15.00351418 16 06.01 +27 15 55.9    ~8F0Z       VNEOCP104
     P22p4vP KC2026 08 15.00778918 16 06.48 +27 14 51.1    ~8F15 20.4 GVNEOCPK51
     P22p4vP KC2026 08 15.01629918 16 07.25 +27 12 46.8    ~8F15 20.0 GVNEOCPK51
     P22p4vP KC2026 08 15.02480618 16 07.99 +27 10 41.9    ~8F15 20.2 GVNEOCPK51
     P22p4vP KB2026 08 15.06164418 16 15.152+27 02 04.71   ~8F2Z 19.6 GXNEOCPW62
     P22p4vP KB2026 08 15.07263918 16 15.993+26 59 23.99   ~8F2Z 19.8 GXNEOCPW62
     P22p4vP KB2026 08 15.08354018 16 16.817+26 56 45.00   ~8F2Z 19.8 GXNEOCPW62
     P22p4vP 0C2026 08 15.18676818 16 27.282+26 31 36.69   ~8GJo 21.33gUNEOCPI41
     P22p4vP 0C2026 08 15.18723918 16 27.344+26 31 29.86   ~8GJo 21.18gUNEOCPI41
     P22p4vP 0B2026 08 15.89841918 17 38.135+23 30 14.30   ~8GLZ       WNEOCP204
     P22p4vP 0B2026 08 15.91117918 17 39.219+23 26 52.13   ~8GLZ 20.1 GWNEOCP204
     P22p4vP KC2026 08 16.10450018 18 01.03 +22 35 41.9    ~8G3K 20.5 GVNEOCPH21
     P22p4vP KC2026 08 16.10701818 18 01.22 +22 35 01.5    ~8G3K 20.4 GVNEOCPH21
     P22p4vP KC2026 08 16.10869718 18 01.36 +22 34 34.7    ~8G3K 19.9 GVNEOCPH21
     P22p4vP 0B2026 08 16.89129618 19 25.474+18 57 35.64   ~8GMZ 18.9 GXNEOCPR54
     P22p4vP 0B2026 08 16.90298618 19 26.563+18 54 15.01   ~8GMZ       XNEOCPR54
     P22p4vP 0B2026 08 16.91468718 19 27.509+18 50 53.34   ~8GMZ 19.7 GXNEOCPR54
     P22p4vP KC2026 08 17.83228 18 21 13.19 +14 18 23.5    ~8HKo       VNEOCP587
     P22p4vP KC2026 08 17.83460 18 21 13.41 +14 17 41.0    ~8HKo 19.8 GVNEOCP587

Station data:
(033) Karl Schwarzschild Observatory, Tautenburg  (N50.980139 E11.711240)
   Germany.  Observer B. Stecklum. 1.34-m f/3 Schmidt + CCD.
(104) San Marcello Pistoiese  (N44.064178 E10.803750)  Italy.  Observers P.
   Bacci, M. Maestripieri. Measurers P. Bacci, L. Tesi, G. Fagioli. 0.60-m
   reflector + CCD.
(106) Črni Vrh  (N45.945905 E14.071100)  Slovenia.  Observer J. Skvarč. 0.6-m
   f/3.3 Deltagraph + CCD.
(204) Schiaparelli Observatory  (N45.868292 E8.769720)  Italy.  Observer L.
   Buzzi. 0.84-m f/3.5 reflector + CCD.
(587) Sormano  (N45.882946 E9.229180)  Italy.  Observers E. Colzani, E. Valli.
    Measurer P. Sicoli. 0.5-m f/6.8 reflector + CCD.
(F52) Pan-STARRS 2, Haleakala  (N20.707382 W156.255910)  US/Hawaii.
   Observers J. Herman, T. Lowe, P. Minguez, A. Schultz, I. Smith. Measurers
   K. Chambers, T. de Boer, J. Fairlamb, H. Gao, M. Huber, C.-C. Lin, E.
   Magnier, Y. Ramanjooloo, R. Wainscoat, R. Weryk. 1.8-m Ritchey-Chrétien +
   CCD.
(H21) Astronomical Research Observatory, Westfield  (N39.483054 W87.968270)
   US/Illinois.  Observer R. Holmes. Measurers S. Foglia, L. Buzzi, T.
   Linder, R. Holmes. 0.40-m f/5.32 astrograph + CCD.
(I41) Palomar Mountain--ZTF  (N33.357336 W116.859780)  US/California.
   Observers B. T. Bolin, Z. T. F. Collaboration. Measurers B. T. Bolin,
   Z.-Y. Lin, F. J. Masci. 1.2-m f/2.4 Schmidt.
(I93) St Pardon de Conques  (N44.558670 W0.202960)  France.  Observers F.
   Losse, W. D'Anna. Measurer F. Losse. 0.40-m f/3.7 reflector + CCD.
(J95) Great Shefford  (N51.474969 W1.447003)  UK/England.  Observer P.
   Birtwhistle. 0.41-m f/6.3 Schmidt-Cassegrain + CCD.
(K51) Osservatorio del Celado, Castello Tesino  (N46.029480 E11.657890)
   Italy.  Observers G. Favero, R. Furgoni. Measurer R. Furgoni. 0.80-m f/4
   reflector + CCD.
(L01) Višnjan Observatory, Tičan  (N45.290897 E13.749300)  Croatia.
   Observers K. Korlević, L. Poropat. Measurer K. Korlevic. 1.0-m f/2.9
   reflector + CCD.
(L04) ROASTERR-1 Observatory, Cluj-Napoca  (N46.820952 E23.596400)  Romania.
   Observer L. Hudin. 0.1-m f/9 refractor + CCD.
(M21) Schiaparelli Southern Observatory, Hakos  (S23.236549 E16.361440)
   Namibia.  Observers A. Aletti, F. Bellini, L. Buzzi, G. Galli. Measurer L.
   Buzzi. 0.36-m f/8.4 reflector + CCD.
(M75) Online observatory, Peschany  (N45.742938 E39.511550)  Russia.
   Observer A. V. Skachedub. 0.28-m f/2.2 reflector + CMO.
(R54) Petit Cosquet, Bangor  (N47.314413 W3.211500)  France.
(W62) Comet Hunter Observatory2, New Ringgold  (N40.745185 W75.862390)
   US/Pennsylvania.  Observer J. Maikner. 0.30-m f/3.8 Riccardi-Honders + CCD.

Orbital elements:  P22p4vP
   Perihelion 2026 Aug 6.334753 +/- 0.0594 TT =  8:02:02.6 (JD 2461258.834753)
Epoch 2026 Aug 17.0 TT = JDT 2461269.5   Earth MOID: 0.0727   Ma: 0.0722
M   6.176613587 +/- 0.056           (J2000 ecliptic)             AutoNEOCP
n   0.579134621 +/- 0.0021          Peri.  162.179003 +/- 0.050
a   1.425442478 +/- 0.00347         Node   146.144908 +/- 0.010
e   0.24581156 +/- 0.0017           Incl.   35.993089 +/- 0.07
P   1.702/621.605d         H 22.43  G  0.15   U  8.6
q 1.075052231 +/- 0.000183    Q 1.775832725 +/- 0.00676
70 of 73 observations 2026 Aug. 9-17; mean residual 0".24
Residuals in arcseconds: 
260809 F52  .06+  .11-    260812 033  .03-  .10-    260814 033  .00   .04-    
260809 F52  .07+  .05+    260812 033  .05+  .07-    260814 033  .07-  .09+    
260809 F52  .20+  .07-    260812 033  .15+  .05-    260814 033  .13-  .07-    
260809 F52  .29+  .42+    260812 033  .03-  .08+    260814 104  .06-  .37-    
260809 F52  .18+  .12+    260813 M75  .21+  .39-    260815 104  .31-  .04+    
260809 J95  .33-  .40-    260813 M75  .22+  .17-    260815 K51  .13-  .14-    
260809 J95  .30-  .16+    260813 M75  .43+  .21+    260815 K51  .07+  .16+    
260810 106  .11+  .32-    260813 033  .05-  .17-    260815 K51  .25-  .05-    
